User: anonymous   Login
Location: Spruce Knob
(38.6995°N, 79.5330°W)
Time: 12:39:56
(UTC-04:00)
Language:

Hubble Space Telescope - Orbit

View from above orbital plane
View from above orbital plane
View from above satellite
View from above satellite

Ground track
Ground track

The orbit data is extracted from the following two-line orbital elements,

1 20580U 90037B   24206.85799808  .00008294  00000-0  38453-3 0  9991
2 20580  28.4682  92.6446 0002648  82.4421 277.6472 15.18253378682766
Epoch (UTC): 24 July 2024 20:35:31
Eccentricity: 0.0002648
inclination: 28.4682°
perigee height: 509 km
apogee height: 513 km
right ascension of ascending node: 92.6446°
argument of perigee: 82.4421°
revolutions per day: 15.18253378
mean anomaly at epoch: 277.6472°
orbit number at epoch: 68276

The dashed part of the orbit path shows where the satellite is in the earth's shadow,  

DLR